Powrót do katalogu

NOAA 16 DEB

AktywnySSO
NORAD 41498·DEBRIS·🇺🇸 United States

Wystrzelony Sep 21, 2000 z Vandenberg Space Force Base

Loading…

Następne Przeloty (najbliższe 24 godziny)

TLE

ŚwieżeSource: Space-Track

Epoka: Sep 13, 2026, 21:03 UTC

1 41498U 00055LW  26256.87740147  .00000441  00000-0  20395-3 0  9996
2 41498  99.0044  44.8491 0020792  52.6064 307.7004 14.25972325544450

Śledź NOAA 16 DEB w czasie rzeczywistym z AllMySat

Download on the App Store